Location: G?julap?du
(16.5372°N, 81.0979°E)
Time: 23:26:03
(UTC+00:00)

Cosmos 1538 Rocket - Pass Details

Date: 14 April 2026
Orbit: 749 x 787 km, 74.0° (Epoch: 9 May)

Event Time Altitude Azimuth Distance (km) Brightness Sun altitude
Rises 14:05:23 0° 351° (N) 3,189 7.5 -18.2°
Reaches altitude 10° 14:07:46 10° 355° (N) 2,267 6.7 -18.8°
Maximum altitude 14:12:51 63° 76° (ENE) 840 3.9 -19.9°
Enters shadow 14:14:52 36° 143° (SE) 1,190 4.6 -20.4°
